Location: George Washington National Forest Helicopter Landing Site
(38.6463°N, 79.0851°W)
Time: 04:03:29
(UTC-04:00)

Tiros 1 - Pass Details

Date: 31 August 2019
Orbit: 631 x 664 km, 48.4° (Epoch: 16 September)

Event Time Altitude Azimuth Distance (km) Brightness Sun altitude
Exits shadow 04:13:40 11° 135° (SE) 1,966 9.7 -27.3°
Drops below altitude 10° 04:13:47 10° 135° (SE) 2,015 9.7 -27.3°
Sets 04:16:09 0° 132° (SE) 2,937 10.6 -26.9°
